Marrakech, Morocco

12:12 AM WEST on September 25, 2016 (GMT +0100)
Menara

Weather History for GMMX - October, 2012

Change the Weather History Date:

Sunday, October 21, 2012

  Actual Average Record
Temperature  
Mean Temperature 64 °F -  
Max Temperature 77 °F 80 °F 97 °F (2014)
Min Temperature 51 °F 58 °F 51 °F (2012)
Degree Days  
Heating Degree Days 1    
Growing Degree Days 14 (Base 50)    
Moisture  
Dew Point 49 °F    
Average Humidity 61    
Maximum Humidity 94    
Minimum Humidity 19    
Precipitation  
Precipitation 0.00 in - - ()
Sea Level Pressure  
Sea Level Pressure 30.02 in    
Wind  
Wind Speed 5 mph ()    
Max Wind Speed 9 mph    
Max Gust Speed -    
Visibility 5.9 miles    
Events      
Averages and records for this station are not official NWS values.
T = Trace of Precipitation, MM = Missing Value Source: Averaged Metar Reports

Daily Weather History Graph

Daily Weather History Graph

Search for Another Location

Airport or City:

Trip Planner

Search our weather history database for the weather conditions in past years. The results will help you decide how hot, cold, wet, or windy it might be!

Date:

Astronomy

Oct. 21, 2012 Rise Set
Actual Time 6:39 AM WET 5:53 PM WET
Civil Twilight 6:15 AM WET 6:17 PM WET
Nautical Twilight 5:46 AM WET 6:46 PM WET
Astronomical Twilight 5:18 AM WET 7:14 PM WET
Moon 12:43 PM WET (10/21) 11:38 PM WET (10/21)
Length of Visible Light 12h 02m
Length of Day
11h 13m
Waxing Crescent, 43% of the Moon is Illuminated
Oct 21
Waxing Crescent
Oct 22
First Quarter
Oct 29
Full
Nov 7
Last Quarter
Nov 13
New

Hourly Weather History & Observations

Time (WET) Temp. Dew Point Humidity Pressure Visibility Wind Dir Wind Speed Gust Speed Precip Events Conditions
12:00 AM 58 °F 51 °F 72% 30.04 in 6 mi NE 3.5 mph - -   Scattered Clouds
12:00 AM 59.0 °F 51.8 °F 77% 30.04 in 6.2 mi NE 3.5 mph - N/A   Partly Cloudy
12:30 AM 57.2 °F 51.8 °F 82% 30.04 in 6.2 mi Calm Calm - N/A   Partly Cloudy
1:00 AM 57.2 °F 51.8 °F 82% 30.04 in 6.2 mi ENE 5.8 mph - N/A   Partly Cloudy
1:30 AM 57.2 °F 51.8 °F 82% 30.04 in 6.2 mi East 4.6 mph - N/A   Partly Cloudy
2:00 AM 55.4 °F 51.8 °F 88% 30.04 in 6.2 mi East 5.8 mph - N/A   Partly Cloudy
2:30 AM 57.2 °F 51.8 °F 82% 30.04 in 6.2 mi ESE 8.1 mph - N/A   Partly Cloudy
3:00 AM 55 °F 52 °F 86% 30.02 in 6 mi East 8.1 mph - -   Scattered Clouds
3:00 AM 55.4 °F 51.8 °F 88% 30.01 in 6.2 mi East 8.1 mph - N/A   Partly Cloudy
3:30 AM 55.4 °F 51.8 °F 88% 30.01 in 6.2 mi East 8.1 mph - N/A   Partly Cloudy
4:00 AM 53.6 °F 51.8 °F 94% 30.01 in 6.2 mi East 8.1 mph - N/A   Unknown
4:30 AM 53.6 °F 50.0 °F 88% 30.01 in 6.2 mi East 8.1 mph - N/A   Unknown
5:00 AM 53.6 °F 51.8 °F 94% 30.01 in 6.2 mi East 6.9 mph - N/A   Unknown
5:30 AM 53.6 °F 50.0 °F 88% 30.01 in - East 4.6 mph - N/A   Clear
6:00 AM 52 °F 50 °F 89% 30.02 in 6 mi East 4.6 mph - -  
6:00 AM 51.8 °F 50.0 °F 94% 30.01 in - East 4.6 mph - N/A   Clear
6:30 AM 51.8 °F 50.0 °F 94% 30.01 in - ENE 4.6 mph - N/A   Clear
7:00 AM 51.8 °F 50.0 °F 94% 30.01 in - East 5.8 mph - N/A   Clear
7:30 AM 53.6 °F 50.0 °F 88% 30.01 in - ENE 4.6 mph - N/A   Clear
8:00 AM 57.2 °F 51.8 °F 82% 30.04 in - East 4.6 mph - N/A   Clear
8:30 AM 59.0 °F 50.0 °F 72% 30.04 in - East 8.1 mph - N/A   Clear
9:00 AM 61 °F 51 °F 60% 30.03 in 6 mi East 8.1 mph - -   Clear
9:00 AM 60.8 °F 51.8 °F 72% 30.04 in - East 8.1 mph - N/A   Clear
9:30 AM 62.6 °F 51.8 °F 68% 30.06 in - East 9.2 mph - N/A   Clear
10:00 AM 64.4 °F 50.0 °F 59% 30.06 in - ENE 8.1 mph - N/A   Clear
10:30 AM 64.4 °F 50.0 °F 59% 30.06 in - ENE 6.9 mph - N/A   Clear
11:00 AM 66.2 °F 50.0 °F 56% 30.06 in - ENE 9.2 mph - N/A   Clear
11:30 AM 68.0 °F 50.0 °F 52% 30.04 in - ENE 8.1 mph - N/A   Clear
12:00 PM 70 °F 49 °F 37% 29.99 in 6 mi NE 6.9 mph - -   Clear
12:00 PM 69.8 °F 50.0 °F 49% 30.04 in - NE 6.9 mph - N/A   Clear
12:30 PM 71.6 °F 48.2 °F 43% 30.04 in - NE 3.5 mph - N/A   Clear
1:00 PM 73.4 °F 44.6 °F 36% 30.04 in - East 4.6 mph - N/A   Clear
1:30 PM 73.4 °F 44.6 °F 36% 30.01 in - Variable 3.5 mph - N/A   Clear
2:00 PM 73.4 °F 41.0 °F 31% 30.01 in - North 5.8 mph - N/A   Clear
2:30 PM 75.2 °F 42.8 °F 31% 30.01 in - Variable 3.5 mph - N/A   Clear
3:00 PM 75 °F 41 °F 19% 29.94 in 6 mi NNE 3.5 mph - -   Clear
3:00 PM 75.2 °F 42.8 °F 31% 30.01 in - NNE 3.5 mph - N/A   Clear
3:30 PM 75.2 °F 42.8 °F 31% 30.01 in - Variable 2.3 mph - N/A   Clear
4:00 PM 77.0 °F 41.0 °F 28% 30.01 in - East 3.5 mph - N/A   Clear
4:30 PM 77.0 °F 41.0 °F 28% 30.01 in - NNE 3.5 mph - N/A   Clear
5:00 PM 75.2 °F 41.0 °F 29% 30.01 in - Variable 2.3 mph - N/A   Clear
5:30 PM 75.2 °F 42.8 °F 31% 30.01 in - East 3.5 mph - N/A   Clear
6:00 PM 73.4 °F 44.6 °F 36% 30.01 in - ESE 4.6 mph - N/A   Clear
6:30 PM 73.4 °F 44.6 °F 36% 30.01 in - SE 4.6 mph - N/A   Clear
7:00 PM 69.8 °F 48.2 °F 46% 30.01 in - Variable 1.2 mph - N/A   Clear
7:30 PM 68.0 °F 48.2 °F 49% 30.01 in - West 3.5 mph - N/A   Clear
8:00 PM 66.2 °F 48.2 °F 52% 30.04 in - Calm Calm - N/A   Clear
8:30 PM 66.2 °F 50.0 °F 56% 30.04 in - Calm Calm - N/A   Clear
9:00 PM 65 °F 47 °F 42% 30.01 in 6 mi Calm Calm - -   Clear
9:00 PM 66.2 °F 48.2 °F 52% 30.04 in - Calm Calm - N/A   Clear
9:30 PM 66.2 °F 50.0 °F 56% 30.04 in - Variable 2.3 mph - N/A   Clear
10:00 PM 64.4 °F 53.6 °F 68% 30.04 in 4.3 mi ESE 2.3 mph - N/A   Unknown
10:30 PM 64.4 °F 51.8 °F 64% 30.04 in 5.0 mi SSE 3.5 mph - N/A   Unknown
11:00 PM 64.4 °F 51.8 °F 64% 30.04 in 6.2 mi South 3.5 mph - N/A   Unknown
11:30 PM 64.4 °F 51.8 °F 64% 30.04 in 5.0 mi Calm Calm - N/A   Unknown